Wind_Speed
21 20 21 25 27 25 24 24 22 23 21 20 19 19 20 17 20 19 16 15 17 17 17 16 15 15 14 14 16 17 19 19 16 17 18 17 17 17 18 22 23 20 16
19 17 18 21 23 24 24 23 22 22 20 19 19 19 19 17 17 17 15 16 18 17 16 15 15 15 14 13 14 15 16 16 17 16 13 17 16 16 19 18 20 19 17
17 17 15 17 21 20 21 20 21 19 19 18 19 17 18 18 16 15 15 17 17 17 14 14 14 13 13 13 13 13 13 14 17 15 8 14 16 14 14 17 14 16 18
17 15 16 15 17 18 17 17 17 18 17 17 18 17 17 18 16 14 15 16 14 16 14 14 14 14 12 11 12 12 13 11 13 14 17 18 12 11 13 13 13 13 14
13 14 16 15 14 17 17 14 16 17 15 14 17 18 15 16 14 13 14 15 13 13 13 13 14 14 14 12 11 12 11 13 8 10 11 11 3 10 12 12 12 11 9
12 12 13 12 14 11 15 15 14 16 14 13 16 16 14 15 13 12 13 13 12 11 12 12 14 15 14 12 12 11 12 11 10 7 7 7 6 8 10 11 10 10 7
12 12 10 10 11 11 11 14 13 14 14 11 13 13 13 13 12 11 11 11 10 10 11 13 14 17 15 11 10 11 9 11 10 5 4 5 4 5 6 8 8 7 7
11 10 9 10 11 10 10 12 12 11 13 10 10 9 11 12 10 10 9 9 9 9 12 13 14 16 15 10 10 10 10 9 9 8 6 2 2 2 2 4 7 6 5
12 11 10 9 11 12 11 11 10 11 10 8 7 7 8 9 8 7 8 7 7 7 9 11 13 12 13 8 10 10 10 10 9 6 10 7 4 2 3 4 4 4 4
12 11 10 9 11 11 10 9 8 8 8 6 6 5 6 5 3 4 5 4 4 4 6 7 10 10 11 8 6 6 10 12 11 10 4 9 4 4 5 4 5 4 4
10 10 10 10 9 9 8 8 7 5 4 4 4 3 2 3 2 1 2 2 3 4 6 7 9 8 9 10 6 6 5 10 11 2 13 13 12 5 1 2 1 3 5
7 8 7 8 8 8 6 4 3 3 1 0 2 3 4 5 4 2 2 2 2 4 6 9 11 8 9 12 7 8 4 5 9 8 11 8 18 10 2 2 1 1 2
7 6 5 4 4 4 4 3 2 2 2 2 3 3 3 4 3 1 1 2 4 4 5 7 8 9 10 8 8 10 5 7 13 13 9 12 16 14 4 3 8 1 1
7 7 6 5 5 4 4 4 4 3 4 4 3 2 2 2 3 3 3 3 4 4 5 7 9 10 10 10 8 7 4 6 6 10 12 9 12 10 10 8 3 12 5
7 8 8 8 8 6 6 6 6 8 7 7 6 5 5 4 5 5 5 6 7 8 8 8 9 8 9 11 9 6 4 6 8 8 12 10 5 8 8 6 10 7 9
7 8 10 9 8 7 7 6 6 8 8 8 9 8 8 7 6 7 8 9 9 8 7 8 9 9 10 12 9 6 5 6 8 9 10 11 3 6 6 6 5 7 2
9 8 10 10 9 8 8 8 7 5 6 7 8 7 7 7 6 7 8 8 8 8 7 8 9 9 10 10 11 8 6 6 7 9 10 9 5 7 8 5 2 9 7
7 9 8 7 8 9 10 9 8 8 8 6 5 5 6 7 8 9 10 10 10 10 10 11 10 9 10 10 10 8 8 7 7 9 8 5 8 8 7 5 3 5 5
2 5 7 8 8 9 9 9 9 10 10 8 7 7 8 9 10 11 13 13 13 13 12 11 10 9 9 9 9 9 10 8 7 7 6 6 5 6 9 8 8 8 9
4 3 5 5 6 9 8 7 9 9 8 6 7 7 4 3 5 7 8 10 10 9 9 7 7 8 8 8 6 8 7 10 8 7 6 5 6 7 9 9 10 11 11
7 7 4 6 7 4 5 6 7 7 7 6 6 3 1 3 4 6 7 7 8 8 7 6 6 8 8 7 6 6 7 7 7 6 6 6 6 7 8 9 10 12 12
8 6 8 9 6 6 5 5 5 6 5 4 3 1 2 6 8 6 7 8 9 8 7 7 7 8 8 7 7 6 6 6 6 6 7 8 8 9 10 11 11 12 13
8 5 4 6 7 6 4 3 5 5 4 2 1 3 6 8 10 9 8 8 8 7 5 6 8 6 6 8 8 7 7 6 5 6 6 8 9 10 11 11 12 12 14
6 6 5 4 3 2 2 3 4 4 4 5 6 8 11 12 14 12 10 9 8 7 7 7 7 5 8 11 10 8 7 7 7 7 8 9 9 10 10 10 11 12 13
7 5 4 3 3 4 4 5 6 6 6 7 9 10 10 14 19 16 13 13 10 7 5 6 5 4 7 10 6 7 8 9 8 8 8 9 10 12 12 13 14 14 14
11 6 2 1 3 7 9 9 4 3 4 7 9 11 13 17 22 17 15 15 13 9 7 4 4 4 6 9 3 5 7 9 9 10 11 12 14 15 15 14 14 14 15
Wind_Direction
102 105 110 116 114 114 112 113 114 109 109 107 109 104 99 98 92 89 87 85 79 72 69 66 65 64 60 60 53 52 54 51 51 55 60 58 68 73 71 63 56 76 77
110 110 118 119 116 116 116 115 111 111 109 111 106 101 101 94 91 92 88 78 73 65 62 62 60 62 57 57 54 50 50 51 48 55 71 86 58 66 68 67 56 75 78
108 109 125 125 121 120 118 119 118 117 119 115 105 104 102 98 89 91 89 79 71 72 62 58 59 60 57 56 53 49 48 54 51 48 33 61 60 66 73 83 80 77 83
118 130 134 131 125 123 121 121 121 118 116 113 110 104 103 97 95 90 86 79 73 70 64 59 55 55 53 54 51 48 45 56 59 55 41 55 48 75 81 84 84 78 85
117 128 132 130 131 132 129 126 121 110 109 113 107 101 102 96 91 89 84 81 75 69 58 55 48 45 39 40 44 47 45 54 73 64 73 83 105 62 76 84 85 83 83
110 121 125 129 130 126 128 126 111 113 118 116 108 100 94 94 94 88 81 76 75 72 62 54 46 36 32 32 27 36 40 44 57 75 56 77 79 73 79 83 95 102 109
121 120 122 126 120 119 119 109 114 115 118 110 97 105 102 96 93 86 83 82 76 65 57 55 40 29 32 43 35 38 43 41 47 64 54 49 53 63 74 88 90 106 123
122 130 139 137 131 126 124 118 116 118 113 115 108 108 104 99 92 81 77 76 72 56 42 48 35 33 31 47 44 42 48 46 40 47 45 341 8 127 105 100 94 93 115
126 130 134 128 123 122 123 123 124 117 113 123 120 116 107 103 103 90 85 79 64 51 36 36 30 25 31 40 57 40 49 46 44 60 28 1 328 233 187 152 126 110 108
116 116 119 120 123 124 131 123 119 111 125 135 140 132 110 122 116 78 78 70 51 38 25 21 30 37 28 34 36 44 40 34 41 41 57 315 2 24 201 179 164 125 104
123 126 130 128 128 128 124 119 116 118 120 151 144 148 147 189 194 99 45 51 36 14 355 358 4 11 12 6 29 7 28 36 15 298 351 346 331 330 41 1 172 155 114
131 136 142 135 135 128 121 119 116 90 76 123 183 175 218 232 241 265 273 300 344 337 330 343 340 346 10 0 10 346 1 354 18 5 330 312 348 349 265 138 315 334 141
152 153 165 167 158 152 154 146 166 139 122 221 234 215 215 237 226 251 281 312 5 356 337 343 328 341 335 346 344 346 356 336 305 336 332 342 9 4 339 157 108 198 151
164 169 178 186 200 220 240 247 259 250 207 209 223 236 224 236 227 245 280 305 314 334 336 328 327 338 335 340 340 306 7 353 338 355 343 6 10 19 27 13 219 91 112
173 179 174 196 208 223 244 255 254 249 243 238 235 245 253 253 261 268 288 298 300 311 323 320 324 319 315 316 324 324 11 1 358 342 344 9 23 338 356 354 70 321 77
184 182 183 188 205 213 220 235 250 265 251 248 244 242 251 254 271 296 291 285 286 302 308 312 314 304 302 306 312 308 334 349 356 356 350 355 358 336 35 351 301 1 347
199 195 194 190 194 209 223 224 239 240 241 238 236 242 258 265 274 288 301 300 300 295 306 311 305 300 306 304 304 310 306 329 344 337 346 12 51 6 22 12 335 317 287
202 206 212 214 208 215 227 220 217 228 232 232 238 253 277 290 288 295 295 289 296 300 301 294 294 302 305 304 291 286 287 308 319 329 331 12 358 329 353 21 356 341 341
155 214 226 232 228 227 229 221 217 230 238 242 255 272 284 291 290 287 290 295 293 288 290 289 292 300 314 310 286 272 277 287 311 307 318 315 322 330 348 354 350 346 350
24 247 250 242 249 233 227 223 232 240 252 269 278 280 291 327 340 328 315 310 306 305 303 305 311 326 328 322 300 270 273 282 298 297 315 327 339 348 352 344 343 344 352
13 24 347 276 268 267 233 241 247 260 274 278 286 306 354 31 346 350 329 321 328 326 319 325 332 339 337 336 324 291 279 281 283 288 286 306 324 335 340 341 335 334 339
343 5 31 16 330 312 295 289 262 266 275 295 301 150 194 324 338 334 328 321 330 331 338 334 336 329 321 325 323 310 287 276 284 289 289 296 303 314 319 324 327 323 323
331 342 5 32 28 20 347 291 273 267 257 268 261 256 293 306 310 314 316 314 318 323 329 340 336 330 327 320 298 292 287 292 297 294 297 297 305 312 315 315 315 319 318
333 340 339 0 350 351 343 316 290 287 294 312 317 304 307 310 314 310 300 293 299 313 339 350 333 319 335 318 279 267 273 285 298 307 312 312 310 305 302 303 307 308 309
317 337 346 16 12 346 334 301 289 295 302 302 305 307 316 316 313 291 290 280 286 300 317 340 340 345 339 331 269 256 266 273 287 296 306 312 312 311 310 309 308 307 306
294 300 284 19 28 20 45 46 38 246 268 288 299 306 307 293 312 311 277 274 270 267 271 283 310 329 358 359 278 251 263 271 285 293 300 305 306 307 307 310 313 313 315
Height
5889 5890 5890 5890 5890 5892 5894 5895 5896 5897 5898 5899 5902 5902 5902 5904 5900 5900 5902 5902 5900 5900 5900 5900 5899 5898 5897 5896 5895 5893 5892 5891 5889 5891 5892 5892 5890 5889 5889 5886 5884 5882 5881
5892 5894 5895 5894 5894 5895 5897 5898 5899 5899 5900 5901 5904 5906 5904 5905 5905 5901 5904 5903 5902 5902 5902 5901 5901 5900 5899 5899 5897 5895 5895 5893 5893 5894 5889 5885 5893 5891 5890 5885 5889 5889 5886
5897 5897 5898 5899 5898 5898 5899 5900 5901 5903 5904 5904 5905 5908 5907 5905 5906 5907 5905 5905 5904 5905 5904 5904 5903 5902 5901 5900 5900 5898 5898 5897 5898 5893 5886 5877 5893 5895 5893 5893 5893 5892 5891
5900 5901 5901 5901 5902 5901 5903 5904 5904 5905 5907 5907 5908 5910 5909 5907 5908 5910 5907 5906 5906 5906 5906 5906 5906 5904 5903 5903 5902 5900 5900 5900 5900 5900 5894 5897 5902 5900 5897 5896 5895 5895 5895
5903 5904 5904 5905 5905 5904 5905 5908 5907 5907 5910 5911 5910 5911 5913 5909 5912 5912 5911 5910 5909 5909 5909 5908 5907 5906 5905 5904 5904 5903 5902 5902 5901 5901 5903 5904 5904 5901 5899 5899 5898 5897 5898
5904 5907 5906 5908 5909 5909 5907 5909 5909 5909 5912 5913 5912 5914 5915 5913 5915 5915 5914 5913 5912 5912 5911 5910 5909 5908 5906 5906 5905 5905 5903 5903 5902 5902 5901 5902 5902 5900 5899 5899 5899 5899 5900
5908 5908 5909 5911 5909 5908 5910 5909 5913 5913 5914 5915 5914 5917 5916 5916 5916 5916 5917 5916 5916 5914 5914 5913 5911 5910 5909 5908 5907 5906 5905 5904 5903 5903 5903 5902 5902 5902 5901 5901 5901 5901 5901
5910 5911 5913 5912 5913 5913 5913 5914 5915 5916 5914 5917 5917 5919 5917 5917 5919 5918 5918 5919 5919 5917 5916 5915 5914 5913 5911 5910 5909 5907 5907 5906 5904 5904 5904 5904 5903 5904 5902 5902 5902 5902 5902
5912 5913 5914 5914 5914 5915 5916 5917 5918 5916 5916 5920 5920 5920 5919 5919 5920 5921 5920 5920 5920 5920 5918 5917 5916 5915 5913 5912 5911 5908 5908 5907 5906 5909 5905 5906 5904 5904 5903 5903 5903 5902 5903
5912 5913 5915 5916 5917 5918 5918 5918 5918 5918 5920 5922 5922 5921 5920 5921 5922 5922 5922 5921 5921 5921 5921 5920 5919 5917 5915 5914 5913 5911 5909 5908 5908 5909 5911 5909 5906 5905 5905 5904 5904 5903 5904
5916 5917 5918 5919 5919 5919 5920 5920 5920 5922 5923 5924 5923 5922 5923 5923 5923 5923 5923 5923 5923 5922 5921 5921 5919 5918 5917 5914 5913 5912 5911 5910 5908 5901 5908 5908 5905 5906 5905 5907 5906 5906 5905
5917 5918 5920 5920 5920 5920 5922 5923 5923 5923 5924 5923 5923 5924 5925 5925 5925 5924 5924 5924 5923 5922 5922 5921 5920 5919 5918 5916 5914 5912 5912 5911 5911 5911 5913 5911 5906 5905 5906 5907 5906 5905 5906
5916 5918 5920 5921 5922 5922 5922 5923 5925 5925 5925 5925 5925 5926 5926 5926 5926 5926 5925 5926 5925 5924 5924 5923 5921 5920 5919 5918 5917 5915 5913 5913 5912 5910 5912 5911 5907 5904 5906 5907 5907 5906 5907
5916 5918 5920 5921 5922 5923 5923 5924 5925 5925 5925 5926 5928 5928 5927 5927 5927 5927 5927 5927 5926 5926 5925 5924 5923 5922 5920 5918 5917 5917 5915 5914 5913 5911 5911 5910 5908 5907 5906 5907 5908 5907 5906
5916 5918 5919 5920 5921 5923 5924 5925 5926 5927 5926 5927 5927 5928 5928 5928 5929 5928 5927 5928 5927 5926 5925 5924 5923 5922 5921 5919 5918 5917 5916 5916 5914 5913 5912 5910 5908 5910 5908 5907 5908 5908 5907
5917 5918 5918 5919 5921 5922 5924 5924 5926 5926 5927 5927 5927 5927 5927 5928 5929 5929 5929 5928 5927 5927 5926 5924 5923 5923 5922 5920 5919 5918 5917 5917 5915 5914 5913 5911 5910 5909 5908 5908 5907 5908 5909
5918 5918 5919 5919 5920 5922 5923 5923 5924 5925 5926 5926 5927 5927 5928 5928 5929 5929 5929 5928 5927 5927 5926 5925 5924 5922 5921 5920 5919 5918 5917 5917 5916 5915 5914 5914 5912 5911 5909 5909 5908 5908 5909
5918 5918 5919 5920 5920 5921 5922 5922 5923 5924 5925 5926 5927 5928 5928 5929 5929 5929 5928 5929 5928 5928 5927 5926 5924 5922 5920 5919 5918 5918 5917 5917 5918 5916 5915 5914 5914 5912 5911 5911 5910 5909 5909
5919 5919 5919 5920 5920 5921 5921 5922 5923 5924 5925 5926 5928 5928 5928 5929 5929 5927 5927 5927 5927 5927 5926 5925 5924 5922 5920 5919 5918 5918 5917 5918 5918 5917 5915 5914 5914 5914 5912 5911 5910 5910 5910
5920 5920 5920 5920 5920 5920 5922 5923 5924 5924 5925 5927 5927 5928 5928 5928 5927 5926 5925 5925 5925 5924 5923 5923 5923 5922 5921 5919 5918 5918 5917 5917 5917 5916 5916 5916 5915 5915 5914 5913 5913 5911 5910
5921 5920 5920 5922 5922 5922 5923 5924 5924 5925 5926 5926 5927 5927 5928 5928 5926 5925 5926 5925 5924 5923 5922 5921 5922 5921 5921 5920 5919 5918 5917 5916 5916 5917 5917 5917 5917 5916 5915 5915 5913 5912 5910
5923 5922 5921 5922 5923 5924 5924 5925 5925 5925 5925 5925 5925 5926 5926 5926 5925 5923 5924 5923 5923 5921 5920 5920 5920 5920 5920 5919 5918 5918 5917 5917 5917 5916 5916 5916 5916 5916 5915 5914 5913 5912 5910
5923 5923 5923 5923 5924 5924 5924 5924 5924 5924 5924 5924 5925 5925 5925 5924 5924 5923 5922 5922 5921 5920 5920 5919 5919 5919 5919 5917 5917 5917 5917 5916 5916 5915 5915 5915 5915 5915 5914 5913 5912 5911 5910
5924 5924 5924 5923 5924 5924 5924 5925 5924 5924 5926 5926 5926 5926 5926 5924 5923 5921 5921 5920 5919 5919 5918 5917 5917 5918 5917 5915 5915 5915 5915 5915 5915 5915 5914 5915 5914 5914 5912 5911 5910 5910 5909
5925 5924 5924 5924 5925 5925 5925 5924 5924 5925 5926 5925 5925 5925 5924 5923 5923 5919 5919 5918 5917 5917 5916 5916 5915 5916 5915 5913 5912 5913 5913 5913 5913 5913 5912 5913 5913 5912 5911 5909 5908 5907 5906
5926 5925 5925 5925 5926 5926 5925 5923 5922 5922 5922 5922 5922 5922 5921 5918 5916 5909 5914 5914 5914 5913 5914 5913 5913 5914 5913 5912 5912 5911 5912 5912 5912 5911 5911 5910 5910 5909 5908 5906 5905 5904 5902